Overview Statistics Trail Chart Weather Telemetry Raw packets
 

This is the latest recevied weather packets stored in our database for station/object HP3ICC-23. If no packets are shown the sender has not sent any weather packets the latest 10 day(s).

<< 16 17 18 19 20 21 22 >>
Time Temp. Humidity Pressure Rain* Wind** Luminosity Snow
1788368489 17.22° C 66% 1014 hPa 0 mm - - -
1788367349 17.22° C 67% 1014 hPa 0 mm - - -
1788367288 17.22° C 67% 1014 hPa 0 mm - - -
1788366148 17.78° C 67% 1015 hPa 0 mm - - -
1788366088 17.78° C 67% 1015 hPa 0 mm - - -
1788364948 17.22° C 66% 1015 hPa 0 mm - - -
1788364887 17.22° C 66% 1015 hPa 0 mm - - -
1788363747 17.22° C 68% 1015 hPa 0 mm - - -
1788363687 17.22° C 68% 1015 hPa 0 mm - - -
1788362547 16.67° C 71% 1015 hPa 0 mm - - -
1788362487 16.67° C 71% 1015 hPa 0 mm - - -
1788361347 16.11° C 71% 1015 hPa 0 mm - - -
1788361287 16.11° C 71% 1015 hPa 0 mm - - -
1788360146 16.11° C 74% 1015 hPa 0 mm - - -
1788360086 16.11° C 74% 1015 hPa 0 mm - - -
1788358946 15.56° C 79% 1015 hPa 0 mm - - -
1788358907 15.56° C 79% 1015 hPa 0 mm - - -
1788357745 15° C 79% 1015 hPa 0 mm - - -
1788356545 15° C 82% 1015 hPa 0 mm - - -
1788356485 15° C 82% 1015 hPa 0 mm - - -
1788355345 13.89° C 89% 1015 hPa 0 mm - - -
1788355284 13.89° C 89% 1015 hPa 0 mm - - -
1788354144 13.33° C 89% 1015 hPa 0 mm - - -
1788354084 13.33° C 89% 1015 hPa 0 mm - - -
1788352944 13.33° C 92% 1015 hPa 0 mm - - -

* Rain latest hour (hover to see other rain measurements)
** Current wind speed in m/s (hover to see current wind gust speed)